This is the latest recevied weather packets stored in our database for station/object K5NWZ. If no packets are shown the sender has not sent any weather packets the latest 10 day(s).
| Time | Temp. | Humidity | Pressure | Rain* | Wind** | Luminosity | Snow |
|---|---|---|---|---|---|---|---|
| 1787768752 | 26.67° C | 48% | 1035 hPa | 0 mm | - | 694 W/m² | - |
| 1787768449 | 26.11° C | 49% | 1035.1 hPa | 0 mm | - | 691 W/m² | - |
| 1787768144 | 26.67° C | 47% | 1035 hPa | 0 mm | - | 691 W/m² | - |
| 1787767839 | 25.56° C | 48% | 1035.3 hPa | 0 mm | - | 689 W/m² | - |
| 1787767535 | 26.11° C | 49% | 1035.2 hPa | 0 mm | - | 686 W/m² | - |
| 1787767234 | 25.56° C | 49% | 1035.1 hPa | 0 mm | - | 677 W/m² | - |
| 1787766926 | 26.11° C | 49% | 1035.2 hPa | 0 mm | - | 674 W/m² | - |
| 1787766621 | 25.56° C | 50% | 1035.4 hPa | 0 mm | - | 669 W/m² | - |
| 1787766320 | 25.56° C | 51% | 1035.3 hPa | 0 mm | - | 665 W/m² | - |
| 1787766015 | 25.56° C | 51% | 1035.5 hPa | 0 mm | - | 659 W/m² | - |
| 1787765712 | 25.56° C | 49% | 1035.7 hPa | 0 mm | - | 653 W/m² | - |
| 1787765408 | 25.56° C | 49% | 1035.7 hPa | 0 mm | - | 647 W/m² | - |
| 1787765107 | 25.56° C | 50% | 1035.8 hPa | 0 mm | - | 642 W/m² | - |
| 1787764802 | 25° C | 51% | 1035.8 hPa | 0 mm | - | 635 W/m² | - |
| 1787764497 | 25° C | 51% | 1035.5 hPa | 0 mm | - | 627 W/m² | - |
| 1787764192 | 24.44° C | 53% | 1035.7 hPa | 0 mm | - | 621 W/m² | - |
| 1787763888 | 25° C | 51% | 1035.8 hPa | 0 mm | - | 613 W/m² | - |
| 1787763583 | 24.44° C | 52% | 1035.8 hPa | 0 mm | - | 603 W/m² | - |
| 1787763279 | 23.89° C | 53% | 1035.8 hPa | 0 mm | - | 570 W/m² | - |
| 1787762977 | 24.44° C | 53% | 1035.7 hPa | 0 mm | - | 586 W/m² | - |
| 1787762677 | 24.44° C | 52% | 1035.8 hPa | 0 mm | - | 576 W/m² | - |
| 1787762375 | 25° C | 52% | 1035.7 hPa | 0 mm | - | 565 W/m² | - |
| 1787762074 | 24.44° C | 50% | 1035.8 hPa | 0 mm | - | 551 W/m² | - |
| 1787761769 | 24.44° C | 51% | 1035.9 hPa | 0 mm | - | 540 W/m² | - |
| 1787761464 | 24.44° C | 52% | 1035.9 hPa | 0 mm | - | 528 W/m² | - |
* Rain latest hour (hover to see other rain measurements)
** Current wind speed in m/s (hover to see current wind gust speed)